Regional Weather Roundup
Issued by NWS

Home | Current Version | Previous Version | Graphics & Text | Print | Product List | Glossary On
Versions: 1 2 3 4 5 6 7 8 9 10 11 12 13 14 15 16 17 18 19 20 21 22 23 24 25 26 27
000
ASUS45 KCYS 220410
RWRWY

WYOMING REGIONAL WEATHER ROUNDUP
NATIONAL WEATHER SERVICE CHEYENNE WY
1000 PM MDT WED JUN 21 2017

NOTE:  "FAIR" INDICATES FEW OR NO CLOUDS BELOW 12,000 FEET
WITH NO SIGNIFICANT WEATHER AND/OR OBSTRUCTIONS TO VISIBILITY.

WYZ001-220500-
YELLOWSTONE NATIONAL PARK

CITY           SKY/WX    TMP DP  RH WIND       PRES   REMARKS
LK YELLOWSTONE   N/A     62  40  44 VRB7G18   30.15R
W YELLOWSTONE  NOT AVBL

$$
WYZ002>013-054>058-071-098>099-220500-
NORTHERN WYOMING

CITY           SKY/WX    TMP DP  RH WIND       PRES   REMARKS
JACKSON        FAIR      64  37  36 W6        30.05R
CODY           FAIR      70  49  47 NW3       29.92R
GREYBULL       FAIR      81  45  28 NW16      29.79R
WORLAND        FAIR      77  49  37 NW6       29.80R
SHERIDAN       FAIR      68  53  58 W8        29.85R
BUFFALO        FAIR      66  53  63 W12       29.91R
GILLETTE       FAIR      71  47  42 N7        29.84R
NEWCASTLE      FAIR      75  45  33 E9        29.81R

$$
WYZ014>020-022>026-101>103-220500-
CENTRAL WYOMING

CITY           SKY/WX    TMP DP  RH WIND       PRES   REMARKS
BIG PINEY      FAIR      60  39  45 N9        30.11R
PINEDALE       FAIR      63  41  45 CALM      30.12R
DUBOIS         FAIR      63  36  36 W3        30.06R
LANDER         FAIR      79  32  18 NW16G22   29.93R
RIVERTON       FAIR      74  36  25 W13       29.91R
CASPER         FAIR      70  37  29 W10       29.87S
DOUGLAS        FAIR      70  56  61 SW9       29.85S

$$
WYZ021-027>030-104>119-220500-
SOUTHERN WYOMING

CITY           SKY/WX    TMP DP  RH WIND       PRES   REMARKS
EVANSTON       FAIR      68  49  50 NW9       30.15R
KEMMERER         N/A     64  41  42 W9        30.15R
FORT BRIDGER   FAIR      69  46  44 W5        30.16S
ROCK SPRINGS   FAIR      72  42  34 W13       30.08R
DIXON          FAIR      68  44  41 E5        30.10R
RAWLINS        FAIR      76  34  21 W14       30.06S
SARATOGA       FAIR      73  32  21 SW9       30.09R
LARAMIE        FAIR      69  36  29 SW16      30.09R
CHEYENNE       FAIR      73  37  27 W12       29.98S
TORRINGTON     FAIR      75  48  38 NE7       29.79F
PINE BLUFFS    FAIR      77  36  22 W12       29.90F

$$




USA.gov is the U.S. government's official web portal to all federal, state and local government web resources and services.